Regional Weather Roundup
Issued by NWS

Home | Current Version | Previous Version | Text Only | Print | Product List | Glossary Off
Versions: 1 2 3 4 5 6 7 8 9 10 11 12 13 14 15 16 17 18 19 20 21 22 23 24 25 26 27 28 29 30 31 32 33 34 35 36 37 38 39 40 41 42 43 44 45 46 47 48 49 50

000
ASUS43 KTOP 282059
RWRKS

WEATHER ROUNDUP FOR KANSAS
NATIONAL WEATHER SERVICE GOODLAND KS
400 PM CDT THU APR 28 2016

NOTE:  "FAIR" INDICATES FEW OR NO CLOUDS BELOW 12,000 FEET WITH NO
SIGNIFICANT WEATHER AND/OR OBSTRUCTIONS TO VISIBILITY.

KSZ001>006-013>018-027>032-041>047-282200-
NORTHWEST KANSAS

CITY           SKY/WX    TMP DP  RH WIND       PRES   REMARKS
GOODLAND       CLOUDY    49  33  54 N13       29.99S
HAYS           CLOUDY    57  37  47 NE10G17   29.99F
HILL CITY      SUNNY     55  39  54 NE8       30.00F
RUSSELL        CLOUDY    58  40  51 N9G16     29.98F
$$

KSZ061>065-074>080-084>089-282200-
SOUTHWEST KANSAS

CITY           SKY/WX    TMP DP  RH WIND       PRES   REMARKS
DODGE CITY     SUNNY     59  35  40 MISG      29.98R
ELKHART          N/A     60  38  44 E8          N/A
GARDEN CITY    MOSUNNY   58  35  42 E6        29.96F
GREAT BEND     CLOUDY    59  39  47 NE10      29.98S
LIBERAL        MOSUNNY   64  39  39 E9        29.94F
$$

KSZ066>073-081>083-090>101-282200-
SOUTHEAST KANSAS

CITY           SKY/WX    TMP DP  RH WIND       PRES   REMARKS
CHANUTE        SUNNY     66  46  48 NW5       29.97F
COFFEYVILLE    MOSUNNY   67  46  47 VRB3      29.96F
HUTCHINSON     CLOUDY    64  41  42 N10       29.96F
MEDICINE LODGE   N/A     68  40  35 NE8       29.94F
NEWTON         MOSUNNY   63  43  48 NE8       29.99F
PARSONS        MOSUNNY   67  47  48 CALM      29.98F
WICHITA INTL   PTSUNNY   67  44  43 CALM      29.96F
WICHITA JABRA  MOSUNNY   66  43  43 N5        29.97S
WINFIELD       SUNNY     67  45  45 VRB7      29.96F
$$

KSZ007>012-019>026-033>040-048>060-102>105-282200-
NORTHEAST KANSAS

CITY           SKY/WX    TMP DP  RH WIND       PRES   REMARKS
CONCORDIA      CLOUDY    56  43  61 N7        30.00S
EMPORIA        SUNNY     63  46  54 N9        29.97F
LAWRENCE       PTSUNNY   61  47  59 W10       29.98R
MANHATTAN      CLOUDY    61  44  53 VRB7      29.99R
OLATHE IND     MOSUNNY   61  48  62 W10       29.98R
OLATHE EXE     MOSUNNY   60  46  59 W7        29.96S
SALINA         SUNNY     62  45  53 NE8G17    29.99F
TOPEKA BILLARD PTSUNNY   59  45  59 NW10G18   29.99R
TOPEKA FORBES  MOSUNNY   62  47  57 NW12      29.98R
$$




USA.gov is the U.S. government's official web portal to all federal, state and local government web resources and services.